[[[{"header":{"parameterUnit":"kt","parameterCategory":2,"dx":1,"dy":1,"la1":30.253999710083008,"la2":30.299108505249023,"lo1":-89.0895004272461,"lo2":-89.04439544677734,"nx":28,"ny":28,"refTime":"2022-10-05T21:00:00:Z","depth":0,"parameterNumber":1,"parameterNumberName":"U-component_of_WINDS"},"data":[-1.7139,-1.7126,-1.7098,-1.707,-1.704,-1.7015,-1.6997,-1.6971,-1.6942,-1.6908,-1.6884,-1.6852,-1.6811,-1.6773,-1.6744,-1.673,-1.6719,-1.6737,-1.6718,-1.6668,-1.6659,-1.665,-1.6651,-1.6735,-1.6735,-1.6773,-1.6774,-1.6774,-1.7109,-1.7079,-1.7056,-1.7014,-1.6994,-1.6961,-1.6924,-1.6908,-1.6886,-1.685,-1.6824,-1.6791,-1.6761,-1.6711,-1.6677,-1.6669,-1.665,-1.6662,-1.6661,-1.6655,-1.6601,-1.6603,-1.6678,-1.6678,-1.6678,-1.6678,-1.6678,-1.6678,-1.7046,-1.7039,-1.6997,-1.697,-1.6941,-1.6913,-1.69,-1.6862,-1.6837,-1.6798,-1.6767,-1.6741,-1.6698,-1.664,-1.6612,-1.659,-1.6571,-1.6574,-1.6574,-1.6576,-1.6582,-1.6533,-1.6583,-1.6582,-1.6582,-1.6582,-1.6581,0,-1.699,-1.6967,-1.6941,-1.6908,-1.6887,-1.6858,-1.6825,-1.6817,-1.6754,-1.6736,-1.6707,-1.6685,-1.6641,-1.6609,-1.6569,-1.6539,-1.6499,-1.6492,-1.6493,-1.6508,-1.6528,-1.6517,-1.6431,-1.649,-1.6489,-1.6488,-1.6488,-1.6487,-1.6924,-1.6919,-1.6859,-1.6845,-1.682,-1.6798,-1.6779,-1.6723,-1.6705,-1.6656,-1.6651,-1.6619,-1.659,-1.6547,-1.6498,-1.6464,-1.6444,-1.6471,-1.6439,-1.6455,-1.6444,-1.6445,-1.6444,-1.6478,-1.6479,-1.648,-1.6481,0,-1.689,-1.6841,-1.6823,-1.6763,-1.6748,-1.6745,-1.6692,-1.6682,-1.6644,-1.6624,-1.6616,-1.6556,-1.6527,-1.6474,-1.643,-1.6403,-1.6396,-1.6377,-1.6411,-1.6405,-1.6423,-1.6422,-1.649,-1.6496,-1.6409,-1.6409,-1.641,0,-1.6813,-1.6808,-1.6735,-1.6727,-1.6719,-1.6663,-1.6657,-1.6623,-1.6584,-1.6567,-1.6515,-1.65,-1.6434,-1.6412,-1.6371,-1.6356,-1.6347,-1.6326,-1.6315,-1.633,-1.6333,-1.6317,-1.6313,-1.629,-1.629,-1.629,-1.6289,0,-1.6764,-1.6718,-1.6704,-1.6686,-1.6619,-1.6614,-1.6586,-1.6541,-1.6522,-1.6487,-1.6474,-1.6438,-1.6418,-1.6391,-1.6339,-1.632,-1.6319,-1.6282,-1.6297,-1.6298,-1.6298,-1.6299,-1.6374,-1.6289,-1.6289,-1.6289,-1.6289,0,-1.6694,-1.6662,-1.665,-1.6593,-1.6583,-1.6573,-1.6535,-1.6514,-1.647,-1.6444,-1.6416,-1.6374,-1.6356,-1.6322,-1.6296,-1.6286,-1.6269,-1.6246,-1.6246,-1.624,-1.6204,-1.6253,-1.633,-1.6336,-1.6237,-1.6236,-1.6236,0,-1.6651,-1.6625,-1.6576,-1.6564,-1.6545,-1.6487,-1.6475,-1.6437,-1.6401,-1.6378,-1.6338,-1.6312,-1.6275,-1.6259,-1.6254,-1.621,-1.6224,-1.6207,-1.6173,-1.6173,-1.6187,-1.6258,-1.6282,-1.632,-1.623,-1.623,-1.6231,0,-1.6611,-1.653,-1.6532,-1.6507,-1.6448,-1.6431,-1.6417,-1.6379,-1.6366,-1.6329,-1.6315,-1.6276,-1.6247,-1.6221,-1.6181,-1.6178,-1.6213,-1.6147,-1.6145,-1.6161,-1.6222,-1.6246,-1.6252,-1.6187,-1.6188,-1.6188,-1.6226,0,-1.6517,-1.6496,-1.6497,-1.6445,-1.6423,-1.6412,-1.6355,-1.6339,-1.6304,-1.6265,-1.6244,-1.6196,-1.6155,-1.6148,-1.6112,-1.6122,-1.6112,-1.608,-1.6042,-1.6089,-1.61,-1.6105,-1.6032,-1.603,-1.6029,-1.6028,0,0,-1.6488,-1.6456,-1.6401,-1.6386,-1.6363,-1.6302,-1.6295,-1.6266,-1.6208,-1.6193,-1.6172,-1.611,-1.6072,-1.6052,-1.6062,-1.6045,-1.6041,-1.6026,-1.6068,-1.6072,-1.6076,-1.6089,-1.6095,-1.6026,-1.6025,-1.6025,-1.6024,0,-1.6441,-1.6405,-1.64,-1.6367,-1.6317,-1.6277,-1.6276,-1.6214,-1.6188,-1.6167,-1.6114,-1.6094,-1.6045,-1.6011,-1.5988,-1.6028,-1.5988,-1.6019,-1.6061,-1.6057,-1.6064,-1.6069,-1.6083,-1.6089,-1.6021,-1.6021,-1.6022,0,-1.6391,-1.6346,-1.6337,-1.6283,-1.6249,-1.6229,-1.6176,-1.6157,-1.6141,-1.6071,-1.605,-1.6015,-1.5965,-1.5953,-1.5945,-1.5925,-1.5944,-1.5927,-1.5933,-1.593,-1.5924,-1.5931,-1.5938,-1.5848,-1.5847,-1.5847,0,0,-1.6358,-1.6338,-1.6271,-1.6269,-1.6251,-1.619,-1.6173,-1.6135,-1.6092,-1.6075,-1.6029,-1.5988,-1.5958,-1.594,-1.5909,-1.5905,-1.5889,-1.5908,-1.5916,-1.5923,-1.5924,-1.592,-1.5927,-1.5846,-1.5846,-1.5846,0,0,-1.6341,-1.6264,-1.6236,-1.6226,-1.6188,-1.612,-1.6121,-1.6084,-1.6051,-1.6045,-1.5979,-1.5965,-1.5952,-1.5919,-1.5909,-1.5895,-1.5859,-1.586,-1.5916,-1.5926,-1.5934,-1.5941,-1.5846,0,0,0,0,0,-1.6263,-1.6274,-1.6249,-1.6239,-1.6169,-1.6135,-1.6125,-1.6071,-1.6048,-1.6049,-1.6005,-1.5964,-1.59,-1.5889,-1.5879,-1.5891,-1.5828,-1.5831,-1.5834,-1.5906,-1.5916,-1.5925,0,0,0,0,0,0,-1.6258,-1.6246,-1.6249,-1.6183,-1.6167,-1.6134,-1.6082,-1.6067,-1.6046,-1.6039,-1.5974,-1.5961,-1.5914,-1.589,-1.5882,-1.5895,-1.5848,-1.583,-1.5832,-1.5835,-1.5909,-1.5918,-1.5925,0,0,0,0,0,-1.6255,-1.6244,-1.6146,-1.6182,-1.6168,-1.61,-1.6081,-1.6068,-1.6051,-1.5981,-1.5968,-1.6012,-1.5916,-1.5905,-1.5885,-1.59,-1.5854,-1.5851,-1.5831,-1.5833,-1.5835,-1.5914,0,0,0,0,0,0,-1.6252,-1.6232,-1.6142,-1.6136,-1.6174,-1.61,-1.6087,-1.607,-1.5994,-1.5981,-1.6017,-1.6012,-1.5917,-1.5909,-1.5901,-1.5905,-1.5858,-1.5855,-1.5853,-1.5833,-1.5834,-1.5836,0,0,0,0,0,0,-1.6237,-1.6227,-1.6139,-1.6131,-1.6123,-1.6101,-1.6089,-1.6064,-1.5993,-1.6033,-1.6026,-1.6016,-1.5929,-1.5911,-1.5905,-1.5867,-1.5861,-1.5858,-1.5856,-1.5855,-1.5834,-1.5835,0,0,0,0,0,0,-1.6232,-1.6223,-1.6133,-1.6127,-1.612,-1.6044,-1.6077,-1.6008,-1.5989,-1.6037,-1.5986,-1.5984,-1.5932,-1.5925,-1.5908,-1.5873,-1.5869,-1.5861,-1.5859,-1.5858,-1.5857,0,0,0,0,0,0,0,-1.6228,-1.6298,-1.618,-1.6123,-1.6117,-1.6077,-1.6075,-1.6073,-1.5989,-1.5987,-1.5986,-1.5985,-1.5877,-1.5874,-1.5871,-1.5879,0,0,-1.5861,-1.586,0,0,0,0,0,0,0,0,-1.6301,-1.6299,-1.618,-1.6179,-1.6177,-1.6077,-1.6075,-1.6074,-1.5988,-1.5987,-1.5986,-1.5985,-1.5876,-1.5874,-1.5871,0,0,0,0,0,0,0,0,0,0,0,0,0,0,0,-1.618,-1.6179,0,-1.6076,-1.6075,-1.6074,-1.5988,-1.5987,-1.5986,-1.5986,-1.5876,-1.5874,-1.5871,0,0,0,0,0,0,0,0,0,0,0,0,0,0,0,0,0,0,0,0,0,0,0,0,0,0,0,0,0,0,0,0,0,0,0,0,0,0,0,0,0,0,0,0,0,0,0,0,0,0,0,0,0,0,0,0,0,0,0,0,0,0,0,0,0,0,0,0,0]}],[{"header":{"parameterUnit":"kt","parameterCategory":2,"dx":1,"dy":1,"la1":30.253999710083008,"la2":30.299108505249023,"lo1":-89.0895004272461,"lo2":-89.04439544677734,"nx":28,"ny":28,"refTime":"2022-10-05T21:00:00:Z","depth":0,"parameterNumber":2,"parameterNumberName":"V-component_of_WINDS"},"data":[-0.6995,-0.7018,-0.7043,-0.7081,-0.711,-0.7142,-0.7161,-0.7189,-0.7218,-0.7259,-0.7288,-0.7316,-0.7356,-0.7397,-0.7431,-0.7443,-0.7456,-0.7447,-0.7463,-0.748,-0.7484,-0.7488,-0.7485,-0.7449,-0.7449,-0.7443,-0.7443,-0.7443,-0.701,-0.7039,-0.7065,-0.7109,-0.7132,-0.7157,-0.7194,-0.7213,-0.724,-0.7275,-0.7304,-0.7342,-0.7376,-0.742,-0.7457,-0.7471,-0.7485,-0.7479,-0.748,-0.7486,-0.7504,-0.75,-0.7467,-0.7467,-0.7467,-0.7467,-0.7467,-0.7467,-0.7045,-0.7057,-0.7097,-0.7126,-0.7155,-0.7184,-0.72,-0.7234,-0.7261,-0.7301,-0.7325,-0.7357,-0.7397,-0.7454,-0.7479,-0.7506,-0.7517,-0.7519,-0.752,-0.752,-0.7518,-0.7528,-0.7513,-0.7513,-0.7513,-0.7513,-0.7513,0,-0.7079,-0.7099,-0.7125,-0.716,-0.7182,-0.7211,-0.7242,-0.7252,-0.7303,-0.7323,-0.7355,-0.7377,-0.7422,-0.7456,-0.7496,-0.7522,-0.755,-0.7555,-0.7557,-0.7547,-0.7534,-0.7544,-0.7576,-0.7555,-0.7555,-0.7556,-0.7556,-0.7556,-0.7119,-0.7128,-0.7181,-0.7197,-0.7219,-0.7242,-0.7262,-0.7306,-0.7325,-0.7369,-0.7378,-0.7411,-0.744,-0.7487,-0.7526,-0.756,-0.7574,-0.7565,-0.758,-0.757,-0.7578,-0.7578,-0.7581,-0.7561,-0.756,-0.756,-0.7559,0,-0.7141,-0.718,-0.7202,-0.7253,-0.7266,-0.7274,-0.7319,-0.7332,-0.7362,-0.7386,-0.7394,-0.7442,-0.7472,-0.7513,-0.7555,-0.7576,-0.7595,-0.7607,-0.7583,-0.7589,-0.7586,-0.7587,-0.7564,-0.7565,-0.76,-0.7599,-0.7599,0,-0.7192,-0.7201,-0.726,-0.727,-0.7284,-0.7327,-0.7339,-0.7366,-0.74,-0.7418,-0.7456,-0.7473,-0.7522,-0.7545,-0.7576,-0.7598,-0.7605,-0.7624,-0.7632,-0.7622,-0.762,-0.7634,-0.7636,-0.7646,-0.7646,-0.7646,-0.7646,0,-0.7223,-0.7263,-0.728,-0.7296,-0.735,-0.7358,-0.7381,-0.7418,-0.7436,-0.7466,-0.7479,-0.751,-0.7528,-0.7553,-0.7592,-0.7601,-0.7619,-0.7639,-0.7638,-0.7637,-0.764,-0.764,-0.7609,-0.7647,-0.7647,-0.7647,-0.7647,0,-0.7271,-0.7298,-0.7315,-0.7362,-0.7371,-0.7381,-0.7415,-0.7433,-0.7469,-0.7489,-0.7513,-0.7543,-0.7562,-0.7581,-0.761,-0.7612,-0.7628,-0.7646,-0.7647,-0.7653,-0.7672,-0.7653,-0.7616,-0.7616,-0.7657,-0.7658,-0.7658,0,-0.7299,-0.7324,-0.7361,-0.7375,-0.7393,-0.7435,-0.7447,-0.7477,-0.7504,-0.7524,-0.7555,-0.7576,-0.7598,-0.7611,-0.762,-0.7652,-0.765,-0.7653,-0.7687,-0.7687,-0.7679,-0.7645,-0.763,-0.7619,-0.7659,-0.7659,-0.7659,0,-0.7325,-0.7388,-0.7388,-0.7409,-0.7452,-0.7466,-0.7479,-0.751,-0.7522,-0.7549,-0.7564,-0.7593,-0.7613,-0.7632,-0.7658,-0.7665,-0.7653,-0.7684,-0.7686,-0.768,-0.7662,-0.7649,-0.7647,-0.767,-0.767,-0.767,-0.766,0,-0.7397,-0.7412,-0.7411,-0.7451,-0.7467,-0.7476,-0.7517,-0.753,-0.7554,-0.7582,-0.7601,-0.7633,-0.7664,-0.767,-0.7693,-0.7695,-0.7701,-0.772,-0.7742,-0.7718,-0.7716,-0.7715,-0.7741,-0.7742,-0.7743,-0.7743,0,0,-0.7416,-0.7438,-0.7475,-0.7488,-0.7505,-0.7546,-0.7553,-0.7573,-0.7613,-0.7624,-0.7637,-0.7683,-0.7708,-0.7727,-0.7723,-0.7733,-0.7739,-0.7744,-0.7728,-0.7726,-0.7724,-0.7722,-0.772,-0.7745,-0.7745,-0.7745,-0.7745,0,-0.745,-0.7472,-0.7476,-0.75,-0.7534,-0.7562,-0.7563,-0.7605,-0.7623,-0.7639,-0.7674,-0.769,-0.7722,-0.7747,-0.7763,-0.7742,-0.7768,-0.7748,-0.7725,-0.7734,-0.7731,-0.7729,-0.7725,-0.7723,-0.7747,-0.7747,-0.7747,0,-0.7486,-0.7516,-0.7521,-0.7557,-0.758,-0.7595,-0.7628,-0.7641,-0.7653,-0.7697,-0.7712,-0.7736,-0.7769,-0.778,-0.7786,-0.7797,-0.7793,-0.7799,-0.7796,-0.7798,-0.7808,-0.7805,-0.7801,-0.7844,-0.7844,-0.7844,0,0,-0.7511,-0.7524,-0.7569,-0.7567,-0.7579,-0.762,-0.763,-0.7655,-0.7684,-0.7695,-0.7724,-0.7752,-0.7772,-0.7784,-0.7805,-0.7809,-0.7822,-0.7809,-0.7805,-0.7801,-0.7801,-0.781,-0.7807,-0.7845,-0.7845,-0.7845,0,0,-0.7523,-0.7574,-0.7593,-0.7596,-0.7622,-0.7666,-0.7664,-0.7689,-0.7711,-0.7714,-0.7756,-0.7765,-0.7775,-0.7795,-0.78,-0.7814,-0.7834,-0.7834,-0.78,-0.7795,-0.779,-0.7786,-0.7838,0,0,0,0,0,-0.7579,-0.7568,-0.7585,-0.7591,-0.7634,-0.7657,-0.7663,-0.7697,-0.7712,-0.7711,-0.774,-0.7765,-0.7808,-0.7813,-0.7819,-0.7814,-0.7853,-0.7852,-0.785,-0.7808,-0.7802,-0.7797,0,0,0,0,0,0,-0.7581,-0.7589,-0.7585,-0.7628,-0.7638,-0.7657,-0.7691,-0.77,-0.7713,-0.7718,-0.7759,-0.7766,-0.7796,-0.7812,-0.7817,-0.7811,-0.7837,-0.7853,-0.7851,-0.785,-0.7806,-0.7801,-0.7797,0,0,0,0,0,-0.7584,-0.759,-0.765,-0.7628,-0.7637,-0.7681,-0.7691,-0.7699,-0.771,-0.7754,-0.7762,-0.7735,-0.7795,-0.7802,-0.7815,-0.7808,-0.7833,-0.7835,-0.7852,-0.7851,-0.785,-0.7804,0,0,0,0,0,0,-0.7586,-0.7598,-0.7652,-0.7656,-0.7634,-0.768,-0.7689,-0.7699,-0.7746,-0.7754,-0.7732,-0.7735,-0.7794,-0.7799,-0.7804,-0.7805,-0.7831,-0.7833,-0.7834,-0.7851,-0.785,-0.7849,0,0,0,0,0,0,-0.7595,-0.7601,-0.7654,-0.7659,-0.7664,-0.768,-0.7687,-0.7702,-0.7746,-0.7722,-0.7726,-0.7733,-0.7787,-0.7798,-0.7802,-0.7824,-0.7829,-0.783,-0.7832,-0.7832,-0.785,-0.785,0,0,0,0,0,0,-0.7598,-0.7603,-0.7659,-0.7662,-0.7667,-0.7715,-0.7694,-0.7736,-0.775,-0.7719,-0.7752,-0.7753,-0.7784,-0.7789,-0.78,-0.782,-0.7823,-0.7829,-0.783,-0.7831,-0.7831,0,0,0,0,0,0,0,-0.7601,-0.7557,-0.7628,-0.7665,-0.7669,-0.7694,-0.7695,-0.7696,-0.775,-0.7751,-0.7752,-0.7753,-0.7819,-0.7821,-0.7823,-0.7817,0,0,-0.7829,-0.783,0,0,0,0,0,0,0,0,-0.7555,-0.7556,-0.7628,-0.7629,-0.763,-0.7694,-0.7695,-0.7696,-0.775,-0.7751,-0.7752,-0.7752,-0.782,-0.7821,-0.7823,0,0,0,0,0,0,0,0,0,0,0,0,0,0,0,-0.7628,-0.7629,0,-0.7694,-0.7695,-0.7695,-0.775,-0.7751,-0.7752,-0.7752,-0.782,-0.7821,-0.7823,0,0,0,0,0,0,0,0,0,0,0,0,0,0,0,0,0,0,0,0,0,0,0,0,0,0,0,0,0,0,0,0,0,0,0,0,0,0,0,0,0,0,0,0,0,0,0,0,0,0,0,0,0,0,0,0,0,0,0,0,0,0,0,0,0,0,0,0,0]}]]]